Worthington, MN

7:20 AM CST on December 16, 2019 (GMT -0600)
Worthington Municipal

Weather History for KOTG - October, 2019

Change the Weather History Date:

Friday, October 18, 2019

  Actual Average Record
Temperature  
Mean Temperature 60 °F -  
Max Temperature 73 °F 55 °F 80 °F (2005)
Min Temperature 46 °F 36 °F 17 °F (1976)
Degree Days  
Heating Degree Days 6    
Growing Degree Days 10 (Base 50)    
Moisture  
Dew Point 44 °F    
Average Humidity 65    
Maximum Humidity 83    
Minimum Humidity 38    
Precipitation  
Precipitation 0.00 in - - ()
Sea Level Pressure  
Sea Level Pressure 29.59 in    
Wind  
Wind Speed 15 mph (South)    
Max Wind Speed 26 mph    
Max Gust Speed 37 mph    
Visibility 10 miles    
Events      
Averages and records for this station are not official NWS values.
T = Trace of Precipitation, MM = Missing Value Source: NWS Daily Summary

Daily Weather History Graph

Daily Weather History Graph

Search for Another Location

Airport or City:

Astronomy

Oct. 18, 2019 Rise Set
Actual Time 7:39 AM CDT 6:34 PM CDT
Civil Twilight 7:10 AM CDT 7:03 PM CDT
Nautical Twilight 6:37 AM CDT 7:36 PM CDT
Astronomical Twilight 6:04 AM CDT 8:09 PM CDT
Moon 9:44 PM CDT (10/18) 12:20 PM CDT (10/18)
Length of Visible Light 11h 52m
Length of Day
10h 54m
Waning Gibbous, 78% of the Moon is Illuminated
Oct 18
Waning Gibbous
Oct 21
Last Quarter
Oct 27
New
Nov 4
First Quarter
Nov 12
Full

Hourly Weather History & Observations

Time (CDT) Temp. Dew Point Humidity Pressure Visibility Wind Dir Wind Speed Gust Speed Precip Events Conditions
12:56 AM 50.0 °F 42.1 °F 74% 29.75 in 10.0 mi SSE 15.0 mph 23.0 mph N/A   Clear
1:56 AM 50.0 °F 42.1 °F 74% 29.74 in 10.0 mi South 15.0 mph 21.9 mph N/A   Clear
2:56 AM 48.9 °F - N/A% 29.72 in 10.0 mi SSE 15.0 mph 20.7 mph N/A   Clear
3:56 AM 48.0 °F 42.1 °F 80% 29.69 in 10.0 mi South 15.0 mph 20.7 mph N/A   Clear
4:56 AM 48.0 °F 42.1 °F 80% 29.68 in 10.0 mi South 13.8 mph 21.9 mph N/A   Clear
5:56 AM 46.9 °F 42.1 °F 83% 29.66 in 10.0 mi South 15.0 mph 23.0 mph N/A   Clear
6:56 AM 46.9 °F 42.1 °F 83% 29.67 in 10.0 mi South 12.7 mph - N/A   Clear
7:56 AM 46.9 °F 42.1 °F 83% 29.65 in 10.0 mi South 12.7 mph - N/A   Clear
8:56 AM 48.9 °F 42.1 °F 77% 29.63 in 10.0 mi SSE 17.3 mph 23.0 mph N/A   Clear
9:56 AM 53.1 °F 43.0 °F 69% 29.60 in 10.0 mi SSE 23.0 mph 26.5 mph N/A   Clear
10:56 AM 55.9 °F 43.0 °F 62% 29.57 in 10.0 mi South 23.0 mph 31.1 mph N/A   Clear
11:56 AM 60.1 °F 45.0 °F 57% 29.56 in 10.0 mi SSE 16.1 mph 26.5 mph N/A   Clear
12:56 PM 66.0 °F 45.0 °F 47% 29.52 in 10.0 mi SSE 18.4 mph 27.6 mph N/A   Clear
1:56 PM 70.0 °F 46.0 °F 42% 29.45 in 10.0 mi South 25.3 mph 34.5 mph N/A   Clear
2:56 PM 73.0 °F 46.0 °F 38% 29.44 in 10.0 mi South 23.0 mph 34.5 mph N/A   Clear
3:56 PM 73.9 °F 46.9 °F 38% 29.46 in 10.0 mi SSW 26.5 mph 36.8 mph N/A   Partly Cloudy
4:56 PM 71.1 °F 48.0 °F 44% 29.47 in 10.0 mi South 17.3 mph 26.5 mph N/A   Overcast
5:56 PM 70.0 °F 48.9 °F 47% 29.48 in 10.0 mi South 13.8 mph - N/A   Partly Cloudy
6:56 PM 66.0 °F 48.9 °F 54% 29.51 in 10.0 mi SSW 8.1 mph - N/A   Clear
7:56 PM 61.0 °F 46.9 °F 60% 29.56 in 10.0 mi WSW 9.2 mph - N/A   Clear
8:56 PM 54.0 °F 44.1 °F 69% 29.60 in 10.0 mi SW 8.1 mph - N/A   Clear
9:56 PM 53.1 °F 44.1 °F 71% 29.61 in 10.0 mi SW 6.9 mph - N/A   Clear
10:56 PM 50.0 °F 44.1 °F 80% 29.62 in 10.0 mi WSW 8.1 mph - N/A   Clear
11:56 PM 50.0 °F 44.1 °F 80% 29.64 in 10.0 mi WSW 6.9 mph - N/A   Clear